Location: Warwick
(41.7000°N, 71.4170°W)
Time: 17:01:45
(UTC-05:00)

Hubble Space Telescope - Visible Passes

Search period start: 17 January 2018 00:00
Search period end: 27 January 2018 00:00
Orbit: 537 x 541 km, 28.5° (Epoch: 17 January)

Date Brightness Start Highest point End Pass type
(mag) Time Alt. Az. Time Alt. Az. Time Alt. Az.
24 Jan 3.3 18:48:39 10° S 18:49:18 10° S 18:49:22 10° SSE visible
25 Jan 3.2 18:37:34 10° S 18:38:53 11° S 18:39:46 11° SSE visible
26 Jan 3.2 18:26:51 10° SSW 18:28:30 12° S 18:30:09 10° SSE visible
